Location: Taaricht
(32.5378°N, 5.4251°W)
Time: 20:03:20
(UTC+00:00)

Cosmos 1953 - Pass Details

Date: 09 April 2020
Orbit: 540 x 557 km, 82.5° (Epoch: 27 May)

Event Time Altitude Azimuth Distance (km) Brightness Sun altitude
Rises 19:27:51 0° 199° (SSW) 2,682 5.9 -9.1°
Reaches altitude 10° 19:30:03 10° 205° (SSW) 1,796 5.1 -9.5°
Maximum altitude 19:33:50 45° 279° (W) 750 3.6 -10.3°
Drops below altitude 10° 19:37:40 10° 352° (N) 1,815 5.3 -11.1°
Sets 19:39:55 0° 359° (N) 2,715 6.1 -11.5°
